#timestamp,LO_Frequency,Hit,StdDev 
1559037615.2,286046983.5,N
1559037635.0,286046987.6,N
1559037635.9,286046987.6,N
1559037655.8,286046989.8,N
1559037675.6,286046988.7,N
1559037725.5,286046982.8,E
1559037735.4,286046987.0,N
1559037755.2,286046994.6,P
1559037775.1,286046992.0,N
1559037776.0,286046992.0,N
1559037795.8,286046997.9,N
1559037815.6,286047000.0,N
1559037835.5,286047008.2,N
1559037855.3,286047008.8,N
1559037875.2,286047004.4,N
1559037895.9,286047005.9,N
1559037915.7,286047009.6,N
1559037935.6,286047017.1,N
1559037955.4,286047023.4,N
1559037975.2,286047020.3,N
1559037995.1,286047022.4,N
1559037996.0,286047022.4,N
1559038015.8,286047020.8,N
1559038035.7,286047021.7,N
1559038055.5,286047009.4,N
1559038075.3,286047006.1,N
1559038095.2,286047005.2,N
1559038115.0,286047001.6,N
1559038115.9,286047001.6,N
1559038135.8,286047005.0,N
1559038155.6,286047012.3,N
1559038175.4,286047017.7,N
1559038195.3,286047017.7,N
1559038215.1,286047016.7,N
1559038235.8,286047012.5,N
1559038255.7,286047012.8,N
1559038275.5,286047011.4,N
1559038295.4,286047008.1,N
1559038315.2,286047004.5,N
1559038335.0,286047010.1,N
1559038335.9,286047010.1,N
1559038355.8,286047012.3,N
1559038375.6,286047011.5,N
1559038395.5,286047011.6,N
1559038415.3,286047013.8,N
1559038435.1,286047006.1,N
1559038455.9,286047001.5,N
1559038475.7,286047005.0,N
1559038495.5,286047005.0,N
1559038515.4,286047003.2,N
1559038535.2,286047004.0,N
1559038555.1,286047002.3,N
1559038556.0,286047002.3,N
1559038575.8,286047000.0,N
1559038595.6,286046993.9,N
1559038615.5,286046994.1,N
1559038635.3,286046998.8,N
1559038655.1,286047000.4,N
1559038675.9,286047004.3,N
1559038695.7,286046999.0,N
1559038715.6,286046989.8,N
1559038735.4,286046987.9,N
1559038755.2,286046991.8,N
1559038775.1,286046998.4,N
1559038776.0,286046998.4,N
1559038795.8,286047001.8,N
1559038815.7,286047002.4,N
1559038835.5,286047003.2,N
1559038855.3,286047003.7,N
1559038875.2,286047006.1,N
1559038895.0,286047004.4,N
1559038895.9,286047004.4,N
1559038915.8,286046996.9,N
1559038935.6,286046993.6,N
1559038955.4,286046990.4,N
1559038975.3,286046990.8,N
1559038995.1,286046984.6,N
1559039015.8,286046982.8,N
1559039035.7,286046983.9,N
1559039055.5,286046985.8,N
1559039075.4,286046983.7,N
1559039095.2,286046988.5,N
1559039115.0,286046985.0,N
1559039115.9,286046985.0,N
1559039135.8,286046974.5,Y
1559039155.6,286046981.6,P
1559039175.5,286046985.1,N
1559039195.3,286046982.5,P
1559039215.1,286046985.8,N
1559039235.9,286046992.2,N
1559039255.7,286046999.6,N
1559039275.6,286046999.7,N
1559039295.4,286046997.1,N
1559039315.2,286046995.4,N
1559039335.1,286047002.8,N
1559039336.0,286047002.8,N
1559039355.8,286047004.1,N
1559039375.6,286047000.5,N
1559039395.5,286047000.9,N
1559039415.3,286046996.6,N
1559039435.2,286046997.7,N
1559039455.9,286047000.1,N
1559039475.7,286047006.9,N
1559039495.6,286047005.2,N
1559039515.4,286047005.4,N
1559039535.3,286047002.4,N
1559039555.1,286046997.7,N
1559039556.0,286046997.7,N
1559039575.8,286046995.8,N
1559039595.7,286046992.1,N
1559039615.5,286046993.4,N
1559039635.3,286046994.4,N
1559039655.2,286046996.6,N
1559039675.0,286046997.4,N
1559039676.0,286046997.4,N
1559039695.8,286046989.4,N
1559039715.6,286046989.3,N
1559039735.5,286046988.5,N
1559039755.3,286046991.1,N
1559039775.1,286046984.2,Y
1559039795.9,286046989.8,P
1559039815.7,286046986.5,P
1559039835.6,286046982.7,P
1559039855.4,286046981.6,Y
1559039875.2,286046992.3,P
1559039895.1,286046997.8,N
1559039896.0,286046997.8,N
1559039915.8,286046998.3,N
1559039935.7,286046997.2,N
1559039955.5,286046999.0,N
1559039975.3,286047000.0,N
1559039995.2,286047005.6,N
1559040015.0,286047001.6,N
1559040015.9,286047001.6,N
1559040035.7,286046995.0,N
1559040055.6,286046991.3,N
1559040075.4,286046985.0,Y
1559040095.3,286046981.7,P
1559040115.1,286046975.9,P
1559040116.0,286046975.9,N
1559040135.8,286046977.9,N
1559040155.7,286046984.1,N
1559040175.5,286046991.5,N
1559040195.4,286046988.3,N
1559040215.2,286046979.3,N
1559040235.1,286046986.8,N
1559040236.0,286046986.8,N
1559040255.8,286046987.3,N
1559040275.6,286046997.1,N
1559040295.5,286046995.4,N
1559040315.3,286046991.7,N
1559040335.1,286046989.2,N
1559040355.9,286046985.5,N
1559040375.7,286046982.7,N
1559040395.6,286046983.1,N
1559040415.4,286046982.9,N
1559040435.2,286046989.4,N
1559040455.1,286046986.3,N
1559040456.0,286046986.3,N
1559040475.8,286046982.7,N
1559040495.7,286046977.4,Y
1559040515.5,286046991.0,P
1559040535.3,286046991.1,P
1559040555.2,286046990.4,P
1559040575.0,286046992.1,Y
1559040575.9,286046992.1,P
1559040595.8,286047006.0,P
1559040615.6,286047001.2,N
1559040635.4,286046996.2,N
1559040655.3,286046993.4,N
1559040675.1,286046997.6,N
1559040695.8,286046996.2,N
1559040715.7,286046995.5,N
1559040735.5,286046992.3,N
1559040755.4,286046987.1,N
1559040775.2,286046987.5,N
1559040795.0,286046989.2,N
1559040795.9,286046989.2,N
1559040815.8,286046995.9,N
1559040835.6,286046999.2,N
1559040855.5,286047000.3,N
1559040875.3,286046998.7,N
1559040895.1,286046995.0,N
1559040915.9,286046993.8,N
1559040935.7,286046994.6,N
1559040955.5,286046999.4,N
1559040975.4,286046997.3,N
1559040995.2,286046994.5,N
1559041015.1,286046990.3,N
1559041016.0,286046990.3,N
1559041035.8,286046989.9,N
1559041055.6,286046982.9,Y
1559041075.5,286046992.3,P
1559041095.3,286046997.2,N
1559041115.2,286046998.2,N
1559041135.9,286047000.0,N
1559041155.7,286047004.2,N
1559041175.6,286047007.9,N
1559041195.4,286047011.8,N
